Torna al catalogo

COSMOS 1823

AttivoNavigazioneLEO
NORAD 17535·PAYLOAD·🇷🇺 Russia

Lanciato Feb 20, 1987 da Plesetsk Cosmodrome

Loading…

Prossimi Passaggi (prossime 24 ore)

TLE

AggiornatoSource: Space-Track

Epoca: Sep 14, 2026, 13:38 UTC

1 17535U 87020A   26257.56852421 -.00000019  00000-0 -13616-4 0  9996
2 17535  73.5996 282.9948 0027368 119.4907  48.9092 12.41381418792958

Traccia COSMOS 1823 in tempo reale con AllMySat

Download on the App Store